Moses Lake, WA
on Tuesday, November 13, 2012

Tuesday
Previous Day Next Day
Daily Summary
 ActualAverageRecord
Temperature
Mean Temperature °F 38°F  
Max Temperature 35°F 47°F 60°F (1981)
Min Temperature 32°F 30°F 10°F (1985)
Degree Days
Heating Degree Days 31 26  
Month to date heating degree days 294 314  
Since 1 July heating degree days 819 951  
Cooling Degree Days 0 0  
Month to date cooling degree days 0 0  
Year to date cooling degree days 719 615  
Moisture
Dew Point 30°F   
Average Humidity 86    
Maximum Humidity 89    
Minimum Humidity 82    
Precipitation
Precipitation 0.00 in 0.04 in 0.38 in (2005)
Month to date precipitation 0.62 0.50  
Year to date precipitation 7.22 6.97  
Wind
Wind Speed 1 mph   
Max Wind Speed 6 mph   
Max Gust Speed 7 mph   
Visibility 9 miles   
Events     

Key: T is trace of precipitation, MM is missing value
Source: NWS Daily Summary
Time(PST)TemperatureDew PointHumidity Pressure Visibility Wind DirectionWind SpeedGust SpeedPrecipitationEvents Conditions
12:08 AM 32.0°F 28.4°F 87% 30.28 in 9.0 miles NW 4.6 mph - N/A   Mostly Cloudy
12:52 AM 34.0°F 30.0°F 85% 30.32 in 10.0 miles North 3.5 mph - N/A   Overcast
1:52 AM 35.1°F 30.0°F 82% 30.32 in 10.0 miles Calm Calm - N/A   Overcast
2:52 AM 34.0°F 30.0°F 85% 30.31 in 10.0 miles Calm Calm - N/A   Overcast
3:17 AM 33.8°F 30.2°F 87% 30.27 in 10.0 miles Calm Calm - N/A   Overcast
3:52 AM 35.1°F 30.0°F 82% 30.30 in 10.0 miles Calm Calm - N/A   Overcast
4:52 AM 35.1°F 30.0°F 82% 30.30 in 10.0 miles Calm Calm - N/A   Overcast
5:52 AM 33.1°F 30.0°F 89% 30.30 in 7.0 miles Calm Calm - N/A   Overcast
6:52 AM 33.1°F 30.0°F 89% 30.30 in 6.0 miles Calm Calm - N/A   Overcast
7:52 AM 34.0°F 30.0°F 85% 30.32 in 6.0 miles WNW 4.6 mph - N/A   Overcast
8:52 AM 34.0°F 30.9°F 89% 30.30 in 5.0 miles Calm Calm - N/A   Overcast
9:52 AM 34.0°F 30.9°F 89% 30.31 in 5.0 miles Calm Calm - N/A   Overcast
10:52 AM 34.0°F 30.9°F 89% 30.30 in 5.0 miles Calm Calm - N/A   Overcast
11:52 AM 34.0°F 30.9°F 89% 30.28 in 3.0 miles NW 3.5 mph - N/A   Overcast
12:52 PM 34.0°F 30.0°F 85% 30.27 in 10.0 miles NNW 3.5 mph - N/A   Overcast
1:52 PM 35.1°F 30.9°F 85% 30.26 in 10.0 miles Calm Calm - N/A   Overcast
2:52 PM 35.1°F 30.0°F 82% 30.25 in 10.0 miles Calm Calm - N/A   Overcast
3:52 PM 35.1°F 30.9°F 85% 30.24 in 10.0 miles NNE 3.5 mph - N/A   Overcast
4:52 PM 35.1°F 30.9°F 85% 30.23 in 10.0 miles NNE 3.5 mph - N/A   Overcast
5:52 PM 35.1°F 32.0°F 89% 30.23 in 10.0 miles Calm Calm - N/A   Overcast
6:52 PM 34.0°F 30.9°F 89% 30.23 in 9.0 miles Calm Calm - N/A   Overcast
7:52 PM 35.1°F 30.9°F 85% 30.24 in 10.0 miles West 3.5 mph - N/A   Overcast
8:52 PM 34.0°F 30.9°F 89% 30.23 in 10.0 miles Calm Calm - N/A   Overcast
9:52 PM 35.1°F 30.9°F 85% 30.23 in 10.0 miles Calm Calm - N/A   Overcast
10:52 PM 35.1°F 30.9°F 85% 30.23 in 10.0 miles Calm Calm - N/A   Overcast
11:52 PM 35.1°F 30.9°F 85% 30.24 in 10.0 miles SW 3.5 mph - N/A   Overcast
Moon Phase
Nov. 13 Nov. 13 Nov. 20 Nov. 28 Dec. 06
Sunrise:06:59 AM (PST) Moon Rise:06:44 AM (PST)11/13
Sunset:04:23 PM (PST) Moon Set:04:18 PM (PST)11/13

Copyright © 2014 The Weather Underground, Inc.